Location: Christian Reformed Church
(43.0975°N, 93.8113°W)
Time: 03:32:28
(UTC+00:00)

Okean 1 - Pass Details

Date: 13 December 2025
Orbit: 465 x 485 km, 82.5° (Epoch: 13 January)

Event Time Altitude Azimuth Distance (km) Brightness Sun altitude
Rises 23:51:53 0° 165° (SSE) 2,523 6.8 -12.5°
Maximum altitude 23:57:19 31° 92° (E) 860 3.8 -13.5°
Enters shadow 23:58:45 23° 51° (NE) 1,063 4.2 -13.7°
